sat.trackr.live / text

‹ back to catalog

STARLINK-4522

NORAD 53388 · 2022-097A

PAYLOAD ACTIVE UNKNOWN

§ Identity

Operator
Country
US
Launch date
2022-08-10
Launch site
AFETR
Launch vehicle
Mass (kg)
RCS (m²)

Purposes: comms

External: N2YO · Heavens-Above · Gunter

§ Orbital elements

Epoch: 2026-05-24T10:27:35.554752Z

Period
95.44 min
Inclination
53.2133°
Eccentricity
0.0001111
Mean motion
15.08836242 rev/d
Perigee alt
539.0 km
Apogee alt
540.5 km
Semi-major
6,917.9 km
B*
3.3570e-5
RAAN
144.0842°
Arg perigee
77.7878°
Mean anomaly
282.3238°
Rev number
21,028

§ Raw data

STARLINK-45221 53388U 22097A   26144.43582818  .00000246  00000+0  33570-4 0  99962 53388  53.2133 144.0842 0001111  77.7878 282.3238 15.08836242210287

JSON: /api/v1/satellites/53388 · /tle

For live sub-satellite position, see the globe view (requires WebGL).

§ Visibility from observer

Set your observer location to see the next 7 days of passes ≥ 10°. The values pass through the URL so the page stays shareable.

No JS? Fill the form by hand. The geolocation button needs JavaScript.